Location: Dackenheim
(49.5215°N, 8.1854°E)
Time: 04:08:57
(UTC+00:00)

UWE-3 - Pass Details

Date: 17 March 2026
Orbit: 543 x 612 km, 97.9° (Epoch: 13 April)

Event Time Altitude Azimuth Distance (km) Brightness Sun altitude
Rises 02:33:56 0° 12° (NNE) 2,888 ? -28.7°
Reaches altitude 10° 02:36:08 10° 11° (N) 1,974 ? -28.5°
Enters shadow 02:38:44 36° 4° (N) 975 ? -28.1°
